Location: La Pernelle
(49.6188°N, 1.2999°W)
Time: 09:12:15
(UTC+00:00)

Cosmos 676 Rocket - Pass Details

Date: 12 June 2021
Orbit: 754 x 784 km, 74.0° (Epoch: 03 August)

Event Time Altitude Azimuth Distance (km) Brightness Sun altitude
Rises 20:50:30 0° 337° (NNW) 3,274 8.8 -5.3°
Reaches altitude 10° 20:52:55 10° 340° (NNW) 2,345 7.8 -5.6°
Maximum altitude 20:58:14 68° 64° (ENE) 845 4.2 -6.2°
Drops below altitude 10° 21:03:33 10° 147° (SSE) 2,338 5.8 -6.8°
Enters shadow 21:04:00 - 148° (SSE) 2,516 6.0 -6.8°
